Find ARCSTONE

NORAD ID: 64540 Int'l Des: 2025-135 Owner: LARCN Country: US operational
LEOCIRCULARRETROGRADESSO

当前视图

正在加载3D地球...

关于 ARCSTONE

正在加载描述...

即将过境

Passes for default location (London). Set your location on the main map for personalized predictions.

高度历史

Loading altitude history...

两行轨道根数

1 64540U 25135N 26151.33318406 .00028544 00000-0 92232-3 0 9992
2 64540 97.4605 268.7079 0002409 228.4783 131.6252 15.32056813 52450
Epoch: May 31, 2026 • Age: 9 hours

当前状态

高度 486.9 km
速度 7.62 km/s
星下点 -44.81°S, 129.24°E
发射日期 Jun 23, 2025
运行时间 0.9 years
类型 other

技术详情

分类 Payload
质量 5.00 kg
干质量 5.00 kg
总质量 5.00 kg
长度 0.30 m
直径 0.10 m
跨度 1.30 m
形状 Box + 2 pan
制造商 BLCAN
平台类型 Cubesat 6U
阶段状态 In Orbit
所有者/国家 LARCN/US

Most Searched